This is the latest recevied weather packets stored in our database for station/object N5YHM-13. If no packets are shown the sender has not sent any weather packets the latest 10 day(s).
| Time | Temp. | Humidity | Pressure | Rain* | Wind** | Luminosity | Snow |
|---|---|---|---|---|---|---|---|
| 1778113386 | 26.67° C | 88% | 1012.4 hPa | 0 mm | - | 1 W/m² | - |
| 1778113083 | 26.67° C | 87% | 1012.3 hPa | 0 mm | - | 1 W/m² | - |
| 1778112781 | 26.67° C | 87% | 1012.4 hPa | 0 mm | - | 1 W/m² | - |
| 1778112476 | 26.67° C | 86% | 1012.4 hPa | 0 mm | - | 1 W/m² | - |
| 1778112167 | 26.67° C | 86% | 1012.3 hPa | 0 mm | - | 1 W/m² | - |
| 1778111863 | 26.67° C | 86% | 1012.8 hPa | 0 mm | - | 1 W/m² | - |
| 1778111559 | 26.67° C | 86% | 1012.4 hPa | 0 mm | - | 1 W/m² | - |
| 1778111256 | 26.67° C | 86% | 1012.4 hPa | 0 mm | - | 1 W/m² | - |
| 1778110953 | 27.22° C | 86% | 1012.5 hPa | 0 mm | - | 1 W/m² | - |
| 1778110651 | 26.67° C | 86% | 1012.7 hPa | 0 mm | - | 3 W/m² | - |
| 1778110347 | 27.22° C | 86% | 1012.5 hPa | 0 mm | - | 1 W/m² | - |
| 1778110044 | 27.22° C | 86% | 1012.6 hPa | 0 mm | - | 1 W/m² | - |
| 1778109744 | 27.22° C | 86% | 1012.3 hPa | 0 mm | - | 1 W/m² | - |
| 1778109441 | 27.22° C | 85% | 1012.2 hPa | 0 mm | - | 1 W/m² | - |
| 1778109140 | 27.22° C | 85% | 1012.2 hPa | 0 mm | - | 2 W/m² | - |
| 1778108836 | 27.78° C | 85% | 1012.5 hPa | 0 mm | - | 2 W/m² | - |
| 1778108533 | 27.78° C | 85% | 1012.2 hPa | 0 mm | - | 2 W/m² | - |
| 1778108230 | 27.78° C | 85% | 1012.2 hPa | 0 mm | - | 3 W/m² | - |
| 1778107927 | 27.78° C | 86% | 1012.5 hPa | 0 mm | - | 2 W/m² | - |
| 1778107623 | 27.78° C | 86% | 1012.2 hPa | 0 mm | - | 3 W/m² | - |
| 1778107320 | 27.78° C | 86% | 1012.2 hPa | 0 mm | - | 3 W/m² | - |
| 1778107016 | 27.78° C | 85% | 1012.2 hPa | 0 mm | - | 4 W/m² | - |
| 1778106712 | 27.78° C | 85% | 1012.5 hPa | 0 mm | - | 8 W/m² | - |
| 1778106409 | 28.33° C | 85% | 1012.3 hPa | 0 mm | - | 10 W/m² | - |
| 1778106105 | 28.33° C | 85% | 1012.1 hPa | 0 mm | - | 8 W/m² | - |
* Rain latest hour (hover to see other rain measurements)
** Current wind speed in m/s (hover to see current wind gust speed)